Time,TemperatureF,DewpointF,PressureIn,WindDirection,WindDirectionDegrees,WindSpeedMPH,WindSpeedGustMPH,Humidity,HourlyPrecipIn,Conditions,Clouds,dailyrainin,SoftwareType,DateUTC
2013-10-09 00:13:00,60.0,48.0,29.95,South,184,9.0,16.0,64,0.00,,,0.00,,2013-10-09 05:13:00,
2013-10-09 00:22:00,60.0,48.0,29.95,SSW,200,10.0,16.0,65,0.00,,,0.00,,2013-10-09 05:22:00,
2013-10-09 00:42:00,60.0,49.0,29.95,South,190,8.0,16.0,66,0.00,,,0.00,,2013-10-09 05:42:00,
2013-10-09 00:52:00,59.0,48.0,29.96,South,173,9.0,17.0,66,0.00,,,0.00,,2013-10-09 05:52:00,
2013-10-09 01:12:00,59.0,48.0,29.96,South,186,8.0,16.0,67,0.00,,,0.00,,2013-10-09 06:12:00,
2013-10-09 01:22:00,58.0,47.0,29.96,SSE,150,9.0,15.0,68,0.00,,,0.00,,2013-10-09 06:22:00,
2013-10-09 01:42:00,58.0,48.0,29.96,South,177,8.0,15.0,69,0.00,,,0.00,,2013-10-09 06:42:00,
2013-10-09 01:52:00,57.0,48.0,29.97,SSE,155,8.0,14.0,71,0.00,,,0.00,,2013-10-09 06:52:00,
2013-10-09 02:12:00,57.0,48.0,29.97,SSE,163,8.0,14.0,71,0.00,,,0.00,,2013-10-09 07:12:00,
2013-10-09 02:22:00,56.0,47.0,29.98,SSE,158,6.0,14.0,72,0.00,,,0.00,,2013-10-09 07:22:00,
2013-10-09 02:42:00,56.0,48.0,29.98,SSE,165,4.0,11.0,74,0.00,,,0.00,,2013-10-09 07:42:00,
2013-10-09 02:52:00,55.0,47.0,29.98,South,177,6.0,12.0,75,0.00,,,0.00,,2013-10-09 07:52:00,
2013-10-09 03:12:00,55.0,48.0,29.98,South,179,8.0,11.0,76,0.00,,,0.00,,2013-10-09 08:12:00,
2013-10-09 03:23:00,54.0,47.0,29.98,SSW,192,6.0,10.0,77,0.00,,,0.00,,2013-10-09 08:23:00,
2013-10-09 03:42:00,54.0,48.0,29.98,SSW,197,6.0,10.0,79,0.00,,,0.00,,2013-10-09 08:42:00,
2013-10-09 03:53:00,54.0,48.0,29.98,South,174,4.0,9.0,80,0.00,,,0.00,,2013-10-09 08:53:00,
2013-10-09 04:11:00,54.0,48.0,29.98,South,179,6.0,10.0,80,0.00,,,0.00,,2013-10-09 09:11:00,
2013-10-09 04:22:00,53.0,47.0,29.98,South,175,7.0,10.0,81,0.00,,,0.00,,2013-10-09 09:22:00,
2013-10-09 04:43:00,53.0,47.0,29.98,SSE,156,6.0,10.0,81,0.00,,,0.00,,2013-10-09 09:43:00,
2013-10-09 04:53:00,53.0,48.0,29.98,SSE,165,6.0,10.0,82,0.00,,,0.00,,2013-10-09 09:53:00,
2013-10-09 05:13:00,53.0,48.0,29.99,SSW,194,7.0,12.0,83,0.00,,,0.00,,2013-10-09 10:13:00,
2013-10-09 05:23:00,52.0,47.0,29.99,South,174,7.0,11.0,83,0.00,,,0.00,,2013-10-09 10:23:00,
2013-10-09 05:43:00,52.0,47.0,29.99,South,183,6.0,11.0,84,0.00,,,0.00,,2013-10-09 10:43:00,
2013-10-09 05:53:00,52.0,48.0,30.00,SSW,195,6.0,10.0,85,0.00,,,0.00,,2013-10-09 10:53:00,
2013-10-09 06:12:00,52.0,48.0,30.00,SSE,162,6.0,11.0,85,0.00,,,0.00,,2013-10-09 11:12:00,
2013-10-09 06:22:00,52.0,48.0,29.99,South,177,5.0,11.0,85,0.00,,,0.00,,2013-10-09 11:22:00,
2013-10-09 06:42:00,52.0,48.0,30.00,SSE,158,6.0,11.0,86,0.00,,,0.00,,2013-10-09 11:42:00,
2013-10-09 06:52:00,52.0,48.0,30.00,SSW,193,6.0,9.0,86,0.00,,,0.00,,2013-10-09 11:52:00,
2013-10-09 07:12:00,52.0,48.0,30.00,South,173,6.0,10.0,86,0.00,,,0.00,,2013-10-09 12:12:00,
2013-10-09 07:22:00,52.0,48.0,30.00,SSE,167,5.0,10.0,86,0.00,,,0.00,,2013-10-09 12:22:00,
2013-10-09 07:42:00,52.0,48.0,30.00,SSE,155,6.0,10.0,86,0.00,,,0.00,,2013-10-09 12:42:00,
2013-10-09 07:52:00,52.0,48.0,30.00,South,175,6.0,9.0,86,0.00,,,0.00,,2013-10-09 12:52:00,
2013-10-09 08:11:00,52.0,48.0,30.00,South,191,7.0,11.0,86,0.00,,,0.00,,2013-10-09 13:11:00,
2013-10-09 08:22:00,52.0,48.0,30.00,South,181,7.0,12.0,85,0.00,,,0.00,,2013-10-09 13:22:00,
2013-10-09 08:42:00,53.0,49.0,30.01,SSW,195,7.0,11.0,85,0.00,,,0.00,,2013-10-09 13:42:00,
2013-10-09 08:52:00,53.0,49.0,30.01,South,174,7.0,11.0,85,0.00,,,0.00,,2013-10-09 13:52:00,
2013-10-09 09:11:00,53.0,48.0,30.01,SSE,155,7.0,12.0,84,0.00,,,0.00,,2013-10-09 14:11:00,
2013-10-09 09:22:00,54.0,49.0,30.01,SSE,151,7.0,15.0,82,0.00,,,0.00,,2013-10-09 14:22:00,
2013-10-09 09:42:00,56.0,50.0,30.02,SSE,165,7.0,11.0,80,0.00,,,0.00,,2013-10-09 14:42:00,
2013-10-09 09:52:00,58.0,51.0,30.02,South,170,5.0,13.0,78,0.00,,,0.00,,2013-10-09 14:52:00,
2013-10-09 10:11:00,59.0,50.0,30.03,South,177,9.0,14.0,73,0.00,,,0.00,,2013-10-09 15:11:00,
2013-10-09 10:22:00,60.0,51.0,30.03,South,173,9.0,15.0,72,0.00,,,0.00,,2013-10-09 15:22:00,
2013-10-09 10:43:00,62.0,51.0,30.03,SSW,198,5.0,13.0,68,0.00,,,0.00,,2013-10-09 15:43:00,
2013-10-09 10:53:00,63.0,51.0,30.03,South,176,9.0,17.0,65,0.00,,,0.00,,2013-10-09 15:53:00,
2013-10-09 11:13:00,64.0,52.0,30.03,SW,224,7.0,18.0,64,0.00,,,0.00,,2013-10-09 16:13:00,
2013-10-09 11:24:00,66.0,52.0,30.03,South,179,10.0,18.0,61,0.00,,,0.00,,2013-10-09 16:24:00,
2013-10-09 11:42:00,66.0,51.0,30.03,SSW,201,11.0,18.0,59,0.00,,,0.00,,2013-10-09 16:42:00,
2013-10-09 11:52:00,67.0,52.0,30.03,SSW,197,9.0,16.0,59,0.00,,,0.00,,2013-10-09 16:52:00,
2013-10-09 12:12:00,68.0,52.0,30.03,South,174,11.0,18.0,56,0.00,,,0.00,,2013-10-09 17:12:00,
2013-10-09 12:22:00,69.0,52.0,30.02,SW,215,10.0,18.0,54,0.00,,,0.00,,2013-10-09 17:22:00,
2013-10-09 12:42:00,70.0,53.0,30.02,SSE,160,10.0,18.0,54,0.00,,,0.00,,2013-10-09 17:42:00,
2013-10-09 12:52:00,71.0,52.0,30.02,SSW,198,10.0,16.0,52,0.00,,,0.00,,2013-10-09 17:52:00,
2013-10-09 13:12:00,72.0,52.0,30.02,SSE,158,11.0,17.0,50,0.00,,,0.00,,2013-10-09 18:12:00,
2013-10-09 13:22:00,72.0,52.0,30.01,SSE,158,11.0,18.0,50,0.00,,,0.00,,2013-10-09 18:22:00,
2013-10-09 13:42:00,73.0,52.0,30.01,SSW,195,12.0,18.0,47,0.00,,,0.00,,2013-10-09 18:42:00,
2013-10-09 13:52:00,73.0,52.0,30.00,South,179,11.0,19.0,47,0.00,,,0.00,,2013-10-09 18:52:00,
2013-10-09 14:11:00,74.0,51.0,30.00,SSE,162,10.0,18.0,45,0.00,,,0.00,,2013-10-09 19:11:00,
2013-10-09 14:22:00,74.0,51.0,30.00,SSE,165,13.0,19.0,44,0.00,,,0.00,,2013-10-09 19:22:00,
2013-10-09 14:42:00,75.0,51.0,29.99,ESE,103,9.0,19.0,43,0.00,,,0.00,,2013-10-09 19:42:00,
2013-10-09 14:52:00,75.0,51.0,29.99,ESE,103,9.0,19.0,43,0.00,,,0.00,,2013-10-09 19:52:00,
2013-10-09 15:11:00,75.0,48.0,29.98,SSE,165,13.0,19.0,38,0.00,,,0.00,,2013-10-09 20:11:00,
2013-10-09 15:22:00,75.0,47.0,29.98,SE,132,12.0,22.0,37,0.00,,,0.00,,2013-10-09 20:22:00,
2013-10-09 15:43:00,75.0,47.0,29.98,South,184,12.0,21.0,37,0.00,,,0.00,,2013-10-09 20:43:00,
2013-10-09 15:52:00,75.0,45.0,29.98,SSE,162,14.0,25.0,35,0.00,,,0.00,,2013-10-09 20:52:00,
2013-10-09 16:11:00,76.0,48.0,29.98,South,177,12.0,19.0,37,0.00,,,0.00,,2013-10-09 21:11:00,
2013-10-09 16:22:00,76.0,47.0,29.98,South,172,14.0,21.0,36,0.00,,,0.00,,2013-10-09 21:22:00,
2013-10-09 16:44:00,75.0,45.0,29.97,SSW,193,14.0,19.0,35,0.00,,,0.00,,2013-10-09 21:44:00,
2013-10-09 16:53:00,75.0,48.0,29.97,SSE,156,10.0,21.0,38,0.00,,,0.00,,2013-10-09 21:53:00,
2013-10-09 17:13:00,75.0,47.0,29.97,SSE,167,11.0,21.0,37,0.00,,,0.00,,2013-10-09 22:13:00,
2013-10-09 17:24:00,75.0,48.0,29.97,South,180,12.0,20.0,39,0.00,,,0.00,,2013-10-09 22:24:00,
2013-10-09 17:43:00,74.0,47.0,29.97,SSE,155,7.0,17.0,39,0.00,,,0.00,,2013-10-09 22:43:00,
2013-10-09 17:53:00,74.0,49.0,29.97,South,177,11.0,16.0,41,0.00,,,0.00,,2013-10-09 22:53:00,
2013-10-09 18:12:00,72.0,49.0,29.97,South,179,5.0,15.0,44,0.00,,,0.00,,2013-10-09 23:12:00,
2013-10-09 18:22:00,71.0,49.0,29.98,SSW,193,7.0,12.0,45,0.00,,,0.00,,2013-10-09 23:22:00,
2013-10-09 18:42:00,70.0,48.0,29.97,South,182,5.0,9.0,46,0.00,,,0.00,,2013-10-09 23:42:00,
2013-10-09 18:53:00,69.0,48.0,29.97,South,188,6.0,11.0,48,0.00,,,0.00,,2013-10-09 23:53:00,
2013-10-09 19:12:00,67.0,48.0,29.97,South,179,2.0,7.0,51,0.00,,,0.00,,2013-10-10 00:12:00,
2013-10-09 19:22:00,65.0,49.0,29.97,South,181,1.0,3.0,57,0.00,,,0.00,,2013-10-10 00:22:00,
2013-10-09 19:42:00,63.0,49.0,29.97,SSW,201,2.0,4.0,61,0.00,,,0.00,,2013-10-10 00:42:00,
2013-10-09 19:52:00,63.0,49.0,29.97,SSW,201,2.0,4.0,61,0.00,,,0.00,,2013-10-10 00:52:00,
2013-10-09 20:11:00,62.0,48.0,29.98,South,174,3.0,6.0,61,0.00,,,0.00,,2013-10-10 01:11:00,
2013-10-09 20:21:00,61.0,48.0,29.98,East,101,4.0,8.0,62,0.00,,,0.00,,2013-10-10 01:21:00,
2013-10-09 20:42:00,61.0,48.0,29.98,SSE,153,4.0,9.0,62,0.00,,,0.00,,2013-10-10 01:42:00,
2013-10-09 20:52:00,61.0,48.0,29.98,South,183,3.0,7.0,63,0.00,,,0.00,,2013-10-10 01:52:00,
2013-10-09 21:12:00,60.0,49.0,29.98,South,173,3.0,6.0,66,0.00,,,0.00,,2013-10-10 02:12:00,
2013-10-09 21:22:00,59.0,47.0,29.98,SSE,168,3.0,7.0,65,0.00,,,0.00,,2013-10-10 02:22:00,
2013-10-09 22:12:00,60.0,47.0,29.99,South,186,5.0,10.0,63,0.00,,,0.00,,2013-10-10 03:12:00,
2013-10-09 22:22:00,60.0,48.0,30.00,SE,143,6.0,11.0,64,0.00,,,0.00,,2013-10-10 03:22:00,
2013-10-09 22:44:00,59.0,48.0,30.00,South,187,5.0,10.0,66,0.00,,,0.00,,2013-10-10 03:44:00,
2013-10-09 22:54:00,58.0,47.0,30.01,South,187,5.0,9.0,68,0.00,,,0.00,,2013-10-10 03:54:00,
2013-10-09 23:13:00,57.0,47.0,30.01,SSE,165,4.0,7.0,70,0.00,,,0.00,,2013-10-10 04:13:00,
2013-10-09 23:24:00,57.0,47.0,30.01,SSE,165,4.0,7.0,70,0.00,,,0.00,,2013-10-10 04:24:00,
2013-10-09 23:48:00,58.0,48.0,30.01,South,184,6.0,10.0,69,0.00,,,0.00,,2013-10-10 04:48:00,
2013-10-09 23:54:00,57.0,48.0,30.01,SSW,193,6.0,9.0,71,0.00,,,0.00,,2013-10-10 04:54:00,